Hourly Data Report for June 06, 2018

LONDON CS
ONTARIO
Current Station Operator: ECCC - MSC

43°02'00.000" N
81°09'00.000" W
278.00 m
6144478
71622
WSN

Download Data

Hourly Data (June 2018)
Hourly Data Report for June 6, 2018
TIME Temp Definition
°C
Dew Point Definition
°C
Rel Hum Definition
%
Wind Dir Definition
10's deg

Wind Spd Definition
km/h
Visibility Definition
km
Stn Press Definition
kPa
Hmdx Definition


Wind Chill Definition


Weather Definition


00:00 10.3 6.6 77 LegendMM LegendMM   97.92     LegendNANA
01:00 10.3 6.6 78 LegendMM LegendMM   97.89     LegendNANA
02:00 10.2 6.8 79 LegendMM LegendMM   97.90     LegendNANA
03:00 10.2 6.9 80 LegendMM LegendMM   97.94     LegendNANA
04:00 9.9 6.9 81 LegendMM LegendMM   98.00     LegendNANA
05:00 8.9 6.7 86 LegendMM LegendMM   98.04     LegendNANA
06:00 9.5 6.2 80 LegendMM LegendMM   98.06     LegendNANA
07:00 10.3 6.0 74 LegendMM LegendMM   98.10     LegendNANA
08:00 11.2 5.4 67 LegendMM LegendMM   98.20     LegendNANA
09:00 11.3 5.2 66 LegendMM LegendMM   98.26     LegendNANA
10:00 11.7 5.5 66 LegendMM LegendMM   98.29     LegendNANA
11:00 12.6 6.0 64 LegendMM LegendMM   98.30     LegendNANA
12:00 13.2 5.9 61 LegendMM LegendMM   98.33     LegendNANA
13:00 14.3 5.7 57 LegendMM LegendMM   98.28     LegendNANA
14:00 15.4 7.0 57 LegendMM LegendMM   98.24     LegendNANA
15:00 16.8 8.9 60 LegendMM LegendMM   98.23     LegendNANA
16:00 16.8 7.3 53 LegendMM LegendMM   98.20     LegendNANA
17:00 18.2 7.8 50 LegendMM LegendMM   98.19     LegendNANA
18:00 16.6 9.3 62 LegendMM LegendMM   98.14     LegendNANA
19:00 14.4 8.5 68 LegendMM LegendMM   98.19     LegendNANA
20:00 13.0 8.1 72 LegendMM LegendMM   98.24     LegendNANA
21:00 11.6 8.0 78 LegendMM LegendMM   98.29     LegendNANA
22:00 10.4 7.9 84 LegendMM LegendMM   98.29     LegendNANA
23:00 11.1 8.3 83 LegendMM LegendMM   98.29     LegendNANA

Notes on Data Quality.

Legend

  • E = Estimated
  • M = Missing
  • NA = Not Available*
  • [empty] = Indicates an unobserved value
Date modified: